Telluride, CO

6:40 AM MST on December 08, 2019 (GMT -0700)
Telluride Regional

Weather History for KTEX - October, 2019

Change the Weather History Date:

Saturday, October 26, 2019

  Actual Average Record
Temperature  
Mean Temperature 46 °F -  
Max Temperature 60 °F 44 °F 61 °F (2016)
Min Temperature 32 °F 28 °F 14 °F (2012)
Degree Days  
Heating Degree Days 19    
Moisture  
Dew Point 15 °F    
Average Humidity 36    
Maximum Humidity 64    
Minimum Humidity 15    
Precipitation  
Precipitation 0.00 in - - ()
Sea Level Pressure  
Sea Level Pressure 30.11 in    
Wind  
Wind Speed 5 mph (SSE)    
Max Wind Speed 16 mph    
Max Gust Speed 25 mph    
Visibility 10 miles    
Events      
Averages and records for this station are not official NWS values.
T = Trace of Precipitation, MM = Missing Value Source: NWS Daily Summary

Daily Weather History Graph

Daily Weather History Graph

Search for Another Location

Airport or City:

Astronomy

Oct. 26, 2019 Rise Set
Actual Time 7:30 AM MDT 6:19 PM MDT
Civil Twilight 7:03 AM MDT 6:46 PM MDT
Nautical Twilight 6:33 AM MDT 7:17 PM MDT
Astronomical Twilight 6:02 AM MDT 7:47 PM MDT
Moon 5:33 AM MDT (10/26) 5:54 PM MDT (10/26)
Length of Visible Light 11h 42m
Length of Day
10h 48m
Waning Crescent, 3% of the Moon is Illuminated
Oct 26
Waning Crescent
Oct 27
New
Nov 4
First Quarter
Nov 12
Full
Nov 19
Last Quarter

Hourly Weather History & Observations

Time (MDT) Temp. Windchill Dew Point Humidity Pressure Visibility Wind Dir Wind Speed Gust Speed Precip Events Conditions
12:15 AM 33.8 °F 27.7 °F 21.2 °F 60% 30.31 in 10.0 mi SSE 6.9 mph - N/A   Clear
12:35 AM 33.8 °F 30.8 °F 21.2 °F 60% 30.31 in 10.0 mi ESE 3.5 mph - N/A   Clear
12:55 AM 32.0 °F 26.4 °F 21.2 °F 64% 30.30 in 10.0 mi SE 5.8 mph - N/A   Clear
1:15 AM 33.8 °F 28.6 °F 21.2 °F 60% 30.29 in 10.0 mi SE 5.8 mph - N/A   Clear
1:35 AM 32.0 °F 26.4 °F 21.2 °F 64% 30.29 in 10.0 mi SE 5.8 mph - N/A   Clear
1:55 AM 32.0 °F 27.5 °F 21.2 °F 64% 30.29 in 10.0 mi SE 4.6 mph - N/A   Clear
2:15 AM 33.8 °F 27.7 °F 21.2 °F 60% 30.28 in 10.0 mi SE 6.9 mph - N/A   Clear
2:35 AM 32.0 °F 25.6 °F 21.2 °F 64% 30.27 in 10.0 mi SE 6.9 mph - N/A   Clear
2:55 AM 32.0 °F 27.5 °F 21.2 °F 64% 30.26 in 10.0 mi SE 4.6 mph - N/A   Clear
3:15 AM 32.0 °F 27.5 °F 19.4 °F 60% 30.25 in 10.0 mi SSE 4.6 mph - N/A   Clear
3:35 AM 32.0 °F 27.5 °F 19.4 °F 60% 30.25 in 10.0 mi ESE 4.6 mph - N/A   Clear
3:55 AM 32.0 °F - 19.4 °F 60% 30.24 in 10.0 mi Calm Calm - N/A   Clear
4:15 AM 32.0 °F 28.7 °F 19.4 °F 60% 30.24 in 10.0 mi East 3.5 mph - N/A   Clear
4:35 AM 33.8 °F - 19.4 °F 56% 30.24 in 10.0 mi Calm Calm - N/A   Clear
4:55 AM 32.0 °F 25.6 °F 19.4 °F 60% 30.23 in 10.0 mi SE 6.9 mph - N/A   Clear
5:15 AM 32.0 °F 26.4 °F 19.4 °F 60% 30.22 in 10.0 mi ESE 5.8 mph - N/A   Clear
5:35 AM 32.0 °F 24.8 °F 17.6 °F 55% 30.21 in 10.0 mi SE 8.1 mph - N/A   Clear
5:55 AM 32.0 °F 25.6 °F 17.6 °F 55% 30.20 in 10.0 mi SE 6.9 mph - N/A   Clear
6:15 AM 32.0 °F 25.6 °F 17.6 °F 55% 30.19 in 10.0 mi SE 6.9 mph - N/A   Clear
6:35 AM 32.0 °F 25.6 °F 15.8 °F 51% 30.19 in 10.0 mi SE 6.9 mph - N/A   Clear
6:55 AM 32.0 °F 25.6 °F 14.0 °F 48% 30.18 in 10.0 mi SE 6.9 mph - N/A   Clear
7:15 AM 32.0 °F 25.6 °F 14.0 °F 48% 30.18 in 10.0 mi ESE 6.9 mph - N/A   Clear
7:35 AM 32.0 °F 25.6 °F 14.0 °F 48% 30.18 in 10.0 mi SE 6.9 mph - N/A   Clear
7:55 AM 32.0 °F 26.4 °F 14.0 °F 48% 30.18 in 10.0 mi SE 5.8 mph - N/A   Clear
8:15 AM 33.8 °F 28.6 °F 14.0 °F 44% 30.18 in 10.0 mi SE 5.8 mph - N/A   Clear
8:35 AM 35.6 °F 31.7 °F 14.0 °F 41% 30.18 in 10.0 mi SE 4.6 mph - N/A   Clear
8:55 AM 35.6 °F - 14.0 °F 41% 30.19 in 10.0 mi Calm Calm - N/A   Clear
9:15 AM 37.4 °F - 14.0 °F 38% 30.18 in 10.0 mi Calm Calm - N/A   Clear
9:35 AM 41.0 °F - 14.0 °F 33% 30.18 in 10.0 mi Calm Calm - N/A   Clear
9:55 AM 42.8 °F - 14.0 °F 31% 30.18 in 10.0 mi Calm Calm - N/A   Clear
10:15 AM 44.6 °F 42.2 °F 14.0 °F 29% 30.17 in 10.0 mi SE 4.6 mph - N/A   Clear
10:35 AM 46.4 °F - 12.2 °F 25% 30.16 in 10.0 mi Calm Calm - N/A   Clear
10:55 AM 50.0 °F - 10.4 °F 20% 30.15 in 10.0 mi East 3.5 mph - N/A   Clear
11:15 AM 51.8 °F - 12.2 °F 21% 30.14 in 10.0 mi Calm Calm - N/A   Clear
11:35 AM 51.8 °F - 14.0 °F 22% 30.13 in 10.0 mi Calm Calm - N/A   Clear
11:55 AM 53.6 °F - 14.0 °F 21% 30.12 in 10.0 mi SW 3.5 mph - N/A   Clear
12:15 PM 55.4 °F - 14.0 °F 20% 30.11 in 10.0 mi WNW 5.8 mph - N/A   Clear
12:35 PM 55.4 °F - 14.0 °F 20% 30.10 in 10.0 mi West 9.2 mph - N/A   Clear
12:55 PM 57.2 °F - 14.0 °F 18% 30.09 in 10.0 mi West 9.2 mph - N/A   Clear
1:15 PM 57.2 °F - 14.0 °F 18% 30.07 in 10.0 mi West 10.4 mph - N/A   Clear
1:35 PM 57.2 °F - 14.0 °F 18% 30.06 in 10.0 mi West 5.8 mph 25.3 mph N/A   Clear
1:55 PM 59.0 °F - 14.0 °F 17% 30.04 in 10.0 mi NNW 5.8 mph 16.1 mph N/A   Clear
2:15 PM 59.0 °F - 14.0 °F 17% 30.02 in 10.0 mi SW 5.8 mph 16.1 mph N/A   Clear
2:35 PM 59.0 °F - 12.2 °F 16% 30.01 in 10.0 mi West 6.9 mph - N/A   Clear
2:55 PM 60.8 °F - 12.2 °F 15% 30.01 in 10.0 mi West 10.4 mph 17.3 mph N/A   Clear
3:15 PM 60.8 °F - 12.2 °F 15% 29.99 in 10.0 mi WSW 13.8 mph 17.3 mph N/A   Clear
3:35 PM 59.0 °F - 12.2 °F 16% 29.99 in 10.0 mi SSW 12.7 mph 19.6 mph N/A   Clear
3:55 PM 59.0 °F - 12.2 °F 16% 29.99 in 10.0 mi WSW 9.2 mph 19.6 mph N/A   Clear
4:15 PM 59.0 °F - 10.4 °F 15% 30.00 in 10.0 mi WSW 13.8 mph 24.2 mph N/A   Clear
4:35 PM 59.0 °F - 10.4 °F 15% 29.99 in 10.0 mi WSW 16.1 mph 25.3 mph N/A   Clear
4:55 PM 59.0 °F - 10.4 °F 15% 30.00 in 10.0 mi WSW 11.5 mph 21.9 mph N/A   Clear
5:15 PM 57.2 °F - 10.4 °F 16% 29.99 in 10.0 mi West 9.2 mph 17.3 mph N/A   Clear
5:35 PM 55.4 °F - 10.4 °F 17% 29.99 in 10.0 mi SW 8.1 mph - N/A   Clear
5:55 PM 55.4 °F - 10.4 °F 17% 29.99 in 10.0 mi WSW 9.2 mph - N/A   Clear
6:15 PM 53.6 °F - 10.4 °F 18% 29.99 in 10.0 mi West 4.6 mph - N/A   Clear
6:35 PM 51.8 °F - 12.2 °F 21% 29.99 in 10.0 mi Calm Calm - N/A   Clear
6:55 PM 51.8 °F - 12.2 °F 21% 29.99 in 10.0 mi West 4.6 mph - N/A   Clear
7:15 PM 50.0 °F - 12.2 °F 22% 29.99 in 10.0 mi East 4.6 mph - N/A   Clear
7:35 PM 48.2 °F - 14.0 °F 25% 29.99 in 10.0 mi SSE 6.9 mph - N/A   Clear
7:55 PM 48.2 °F - 15.8 °F 27% 29.99 in 10.0 mi SSE 4.6 mph - N/A   Clear
8:15 PM 46.4 °F 45.2 °F 15.8 °F 29% 29.99 in 10.0 mi SSE 3.5 mph - N/A   Clear
8:35 PM 46.4 °F - 17.6 °F 32% 29.99 in 10.0 mi Calm Calm - N/A   Clear
8:55 PM 44.6 °F 43.1 °F 15.8 °F 31% 29.97 in 10.0 mi NE 3.5 mph - N/A   Clear
9:15 PM 44.6 °F 43.1 °F 17.6 °F 34% 29.98 in 10.0 mi East 3.5 mph - N/A   Clear
9:35 PM 44.6 °F - 17.6 °F 34% 29.97 in 10.0 mi Calm Calm - N/A   Clear
9:55 PM 44.6 °F 43.1 °F 17.6 °F 34% 29.97 in 10.0 mi ENE 3.5 mph - N/A   Clear
10:15 PM 44.6 °F 43.1 °F 15.8 °F 31% 29.97 in 10.0 mi East 3.5 mph - N/A   Clear
10:35 PM 46.4 °F 44.3 °F 15.8 °F 29% 29.97 in 10.0 mi ESE 4.6 mph - N/A   Clear
10:55 PM 46.4 °F - 15.8 °F 29% 29.97 in 10.0 mi Calm Calm - N/A   Clear
11:15 PM 44.6 °F 43.1 °F 17.6 °F 34% 29.97 in 10.0 mi North 3.5 mph - N/A   Clear
11:35 PM 46.4 °F 41.9 °F 17.6 °F 32% 29.97 in 10.0 mi ESE 9.2 mph - N/A   Clear
11:55 PM 46.4 °F 41.1 °F 17.6 °F 32% 29.97 in 10.0 mi SE 11.5 mph - N/A   Clear